User: anonymous   Login
Location: Caltech
(34.1382°N, 118.1253°W)
Time: 11:02:04
(UTC-07:00)
Language:

Cosmos 2251 Rocket - Orbit

View from above orbital plane
View from above orbital plane
View from above satellite
View from above satellite

Ground track
Ground track

The orbit data is extracted from the following two-line orbital elements,

1 22676U 93036B   14296.19397467  .00000192  00000-0  78288-4 0  3557
2 22676 074.0419 151.9458 0018162 053.6505 306.6319 14.33663944116600
Epoch (UTC): 23 October 2014 04:39:19
Eccentricity: 0.0018162
inclination: 74.0419°
perigee height: 766 km
apogee height: 792 km
right ascension of ascending node: 151.9458°
argument of perigee: 53.6505°
revolutions per day: 14.33663944
mean anomaly at epoch: 306.6319°
orbit number at epoch: 11660

The dashed part of the orbit path shows where the satellite is in the earth's shadow,  

DLR